Stations météo

réclame
Mon MeteoGroup
Kiruna Airport, Suède (2044): Température de l'air & dewpoint: 09.08.2018 01:00:00 - 15.08.2018 01:00:00 (CEST)Kiruna Airport, Suède (2044): Vitesse du vent: 09.08.2018 01:00:00 - 15.08.2018 01:00:00 (CEST)Kiruna Airport, Suède (2044): Direction du vent: 09.08.2018 01:00:00 - 15.08.2018 01:00:00 (CEST)Kiruna Airport, Suède (2044): reduced air pressure: 09.08.2018 01:00:00 - 15.08.2018 01:00:00 (CEST)Kiruna Airport, Suède (2044): visibility: 09.08.2018 01:00:00 - 15.08.2018 01:00:00 (CEST)
Date & Time tt [°C] td [°C] ff [km/h] ff [knt] dd ppp [hPa] vv [km]
15.08.2018 01:00:00 8,0 7,0 2 1 SSW - 10
15.08.2018 00:00:00 8,1 6,7 0 0 N 1011,7 10
14.08.2018 23:00:00 7,4 6,0 8 4 W 1011,7 10
14.08.2018 22:00:00 7,9 5,9 5 3 N 1011,5 10
14.08.2018 21:00:00 8,8 5,2 8 4 E 1011,0 9
14.08.2018 20:00:00 9,4 6,1 5 3 N 1010,8 10
14.08.2018 19:00:00 9,7 6,4 4 2 W 1010,3 10
14.08.2018 18:00:00 10,8 3,6 0 0 N 1009,9 10
14.08.2018 17:00:00 10,7 4,6 0 0 N 1010,1 10
14.08.2018 16:00:00 8,7 5,8 5 3 - 1010,8 10
14.08.2018 15:00:00 11,3 4,5 2 1 WSW 1010,0 10
14.08.2018 14:00:00 10,1 4,5 4 2 - 1010,4 10
14.08.2018 13:00:00 9,5 4,3 0 0 N 1010,1 10
14.08.2018 12:00:00 9,1 4,7 0 0 N 1010,1 50
14.08.2018 11:00:00 8,4 4,6 0 0 N 1010,0 10
14.08.2018 10:00:00 8,0 4,6 2 1 - 1009,8 10
14.08.2018 09:00:00 7,4 4,5 4 2 N 1009,7 10
14.08.2018 08:00:00 7,3 4,4 5 3 NNW 1009,4 10
14.08.2018 07:00:00 6,7 4,4 4 2 NNW 1009,1 10
14.08.2018 06:00:00 6,4 3,9 2 1 - 1009,1 10
14.08.2018 05:00:00 6,1 3,9 4 2 NW 1008,9 10
14.08.2018 04:00:00 5,6 3,8 0 0 N 1008,8 10
14.08.2018 03:00:00 5,9 3,9 4 2 NW 1008,7 10
14.08.2018 02:00:00 6,3 4,6 8 4 N 1008,3 10
14.08.2018 01:00:00 6,7 4,2 5 3 NNW 1007,9 10
14.08.2018 00:00:00 6,6 4,8 8 4 N 1007,4 10
13.08.2018 23:00:00 6,9 4,7 8 4 N 1007,2 10
13.08.2018 22:00:00 7,1 4,7 8 4 NNW 1006,9 10
13.08.2018 21:00:00 7,6 5,6 13 7 N 1006,0 10
13.08.2018 20:00:00 7,6 5,6 9 5 N 1006,0 10
13.08.2018 19:00:00 7,9 5,4 18 10 NNW 1005,7 10
13.08.2018 18:00:00 8,9 5,5 15 8 N 1005,4 10
13.08.2018 17:00:00 8,5 5,8 21 11 NNW 1005,5 10
13.08.2018 16:00:00 9,6 4,7 22 12 N 1004,8 10
13.08.2018 15:00:00 10,4 4,3 21 11 N 1004,0 10
13.08.2018 14:00:00 10,2 5,2 21 11 N 1003,7 10
13.08.2018 13:00:00 10,5 5,9 18 10 N 1003,1 10
13.08.2018 12:00:00 10,2 5,8 26 14 N 1003,1 10
13.08.2018 11:00:00 9,4 6,1 22 12 N 1003,1 10
13.08.2018 10:00:00 8,7 5,6 18 10 N 1002,9 10
13.08.2018 09:00:00 9,4 4,6 24 13 N 1002,1 10
13.08.2018 08:00:00 9,0 5,9 16 9 N 1002,0 10
13.08.2018 07:00:00 8,2 6,0 15 8 N 1002,0 10
13.08.2018 06:00:00 8,0 6,0 13 7 NNW 1001,7 10
13.08.2018 05:00:00 7,9 6,5 15 8 N 1001,5 10
13.08.2018 04:00:00 8,0 6,9 16 9 N 1001,5 10
13.08.2018 03:00:00 8,0 7,2 13 7 N 1001,2 10
13.08.2018 02:00:00 8,1 7,5 16 9 N 1001,0 6
13.08.2018 01:00:00 8,3 7,9 15 8 N 1000,9 6
13.08.2018 00:00:00 8,7 8,3 15 8 N 1000,6 5
12.08.2018 23:00:00 9,1 8,6 15 8 N 1000,4 2,6
12.08.2018 22:00:00 9,6 9,3 16 9 N 1000,1 2,8
12.08.2018 21:00:00 10,0 9,7 16 9 N 999,7 2,6
12.08.2018 20:00:00 10,3 9,8 22 12 NNW 999,6 3,4
12.08.2018 19:00:00 10,6 9,8 16 9 N 999,2 9
12.08.2018 18:00:00 11,2 10,4 11 6 N 999,0 5
12.08.2018 17:00:00 11,1 10,0 11 6 N 999,0 10
12.08.2018 16:00:00 11,4 9,3 18 10 NNW 998,8 10
12.08.2018 15:00:00 12,7 9,7 13 7 NNW 998,3 10
12.08.2018 14:00:00 12,7 9,5 15 8 NNW 998,2 10
12.08.2018 13:00:00 12,0 9,7 9 5 W 998,5 10
12.08.2018 12:00:00 11,7 9,6 8 4 W 998,5 10
12.08.2018 11:00:00 11,1 9,5 4 2 - 998,6 8
12.08.2018 10:00:00 10,6 9,5 5 3 NW 998,6 8
12.08.2018 09:00:00 11,2 9,3 4 2 N 998,1 10
12.08.2018 08:00:00 10,9 8,3 4 2 NNW 998,0 10
12.08.2018 07:00:00 10,8 7,7 0 0 N 997,8 10
12.08.2018 06:00:00 10,1 6,6 4 2 - 997,7 10
12.08.2018 05:00:00 9,5 6,8 4 2 - 997,8 10
12.08.2018 04:00:00 10,4 6,5 13 7 W 997,5 10
12.08.2018 03:00:00 10,8 7,1 11 6 WNW 997,5 10
12.08.2018 02:00:00 11,7 6,8 11 6 W 997,2 10
12.08.2018 01:00:00 11,6 7,1 22 12 W 997,2 10
12.08.2018 00:00:00 11,9 7,8 21 11 W 996,8 10
11.08.2018 23:00:00 11,6 8,3 29 16 W 996,9 10
11.08.2018 22:00:00 12,2 9,4 15 8 SW 996,5 10
11.08.2018 21:00:00 13,3 9,7 13 7 SW 995,7 10
11.08.2018 20:00:00 13,7 10,7 13 7 SSW 995,1 10
11.08.2018 19:00:00 13,7 11,6 11 6 SSW 994,9 10
11.08.2018 18:00:00 13,5 11,4 15 8 SSW 994,9 10
11.08.2018 17:00:00 12,6 11,2 13 7 S 995,2 10
11.08.2018 16:00:00 12,1 10,8 16 9 S 995,2 4,4
11.08.2018 15:00:00 13,2 10,2 24 13 SSW 995,1 10
11.08.2018 14:00:00 13,0 10,9 15 8 S 995,0 10
11.08.2018 13:00:00 12,1 10,7 24 13 SSW 995,5 10
11.08.2018 12:00:00 14,5 10,1 26 14 S 994,8 10
11.08.2018 11:00:00 13,9 11,9 26 14 S 995,0 10
11.08.2018 10:00:00 16,0 13,3 18 10 SSE 994,4 10
11.08.2018 09:00:00 16,0 14,5 13 7 SE 995,0 10
11.08.2018 08:00:00 13,5 13,5 11 6 ESE 996,3 1,1
11.08.2018 07:00:00 12,4 12,4 5 3 - 997,4 1,7
11.08.2018 06:00:00 11,9 11,9 8 4 ENE 998,5 0,3
11.08.2018 05:00:00 11,5 11,5 4 2 - 999,6 1,0
11.08.2018 04:00:00 11,3 11,1 8 4 E 1000,7 2,5
11.08.2018 03:00:00 11,0 10,8 9 5 NE 1001,8 2,0
11.08.2018 02:00:00 10,7 10,5 8 4 NNE 1003,0 6
11.08.2018 01:00:00 10,5 10,3 11 6 NNE 1004,3 10
11.08.2018 00:00:00 10,4 10,1 15 8 NE 1005,5 10
10.08.2018 23:00:00 10,7 10,1 9 5 E 1007,3 10
10.08.2018 22:00:00 11,5 9,7 5 3 - 1007,9 9
10.08.2018 21:00:00 12,2 10,6 5 3 NE 1008,7 10
10.08.2018 20:00:00 12,4 10,5 8 4 NE 1009,7 10
10.08.2018 19:00:00 12,9 9,9 8 4 NE 1010,4 10
10.08.2018 18:00:00 13,7 9,3 5 3 ESE 1011,4 10
10.08.2018 17:00:00 14,3 8,9 5 3 SSE 1012,1 10
10.08.2018 16:00:00 15,7 6,7 8 4 E 1012,4 10
10.08.2018 15:00:00 16,5 6,3 11 6 ENE 1012,6 10
10.08.2018 14:00:00 16,1 6,8 11 6 NE 1013,3 10
10.08.2018 13:00:00 16,6 6,7 8 4 ENE 1013,5 10
10.08.2018 12:00:00 15,5 7,0 9 5 ENE 1014,1 10
10.08.2018 11:00:00 16,1 6,5 5 3 - 1013,8 10
10.08.2018 10:00:00 15,1 6,4 4 2 - 1014,4 10
10.08.2018 09:00:00 14,1 6,2 4 2 - 1014,4 10
10.08.2018 08:00:00 13,0 5,7 2 1 - 1014,7 10
10.08.2018 07:00:00 10,3 6,1 5 3 - 1015,2 10
10.08.2018 06:00:00 9,3 4,3 11 6 SSW 1015,2 10
10.08.2018 05:00:00 6,8 4,1 0 0 N 1015,5 10
10.08.2018 04:00:00 7,0 4,5 4 2 - 1015,0 10
10.08.2018 03:00:00 9,8 5,0 15 8 W 1013,5 10
10.08.2018 02:00:00 8,3 5,2 11 6 WSW 1013,5 10
10.08.2018 01:00:00 9,2 6,1 5 3 W 1012,7 10
10.08.2018 00:00:00 11,3 6,4 8 4 WSW 1011,8 10
09.08.2018 23:00:00 11,4 7,3 9 5 SW 1011,8 10
09.08.2018 22:00:00 12,6 6,8 9 5 WSW 1010,5 10
09.08.2018 21:00:00 14,5 6,6 18 10 W 1009,3 10
09.08.2018 20:00:00 16,0 7,2 13 7 W 1007,9 10
09.08.2018 19:00:00 16,6 8,0 24 13 W 1007,4 10
09.08.2018 18:00:00 18,6 9,4 22 12 W 1005,9 10
09.08.2018 17:00:00 18,6 9,4 18 10 WNW 1004,8 10
09.08.2018 16:00:00 19,3 11,3 24 13 W 1003,2 10
09.08.2018 15:00:00 18,2 14,1 18 10 WNW 1002,4 10
09.08.2018 14:00:00 16,6 15,1 18 10 WNW 1000,8 10
09.08.2018 13:00:00 17,5 15,8 13 7 S 998,9 10
09.08.2018 12:00:00 17,3 15,8 11 6 S 999,5 10
09.08.2018 11:00:00 17,2 14,7 16 9 S 1000,2 10
09.08.2018 10:00:00 17,8 14,3 18 10 SW 1000,4 10
09.08.2018 09:00:00 17,7 14,4 26 14 SSW 1000,6 10
09.08.2018 08:00:00 16,9 14,2 11 6 SW 1001,2 10
09.08.2018 07:00:00 15,6 14,0 11 6 SSW 1002,0 10
09.08.2018 06:00:00 15,4 13,8 15 8 SSW 1002,1 10
09.08.2018 05:00:00 14,8 13,3 15 8 S 1002,8 10
09.08.2018 04:00:00 14,8 13,3 21 11 S 1002,8 10
09.08.2018 03:00:00 15,4 13,1 9 5 S 1003,5 10
09.08.2018 02:00:00 15,2 13,2 8 4 SW 1004,4 10
09.08.2018 01:00:00 15,8 13,8 34 18 SW 1005,2 10

tt = Température de l'air
td = dewpoint
ff = Vitesse du vent
dd = Direction du vent
ppp = reduced air pressure
vv = visibility

stations d'obs. à proximité